User: anonymous   Login
Location: Elstree
(51.6403°N, 0.2969°W)
Time: 15:51:15
(UTC+00:00)
Language:

Cosmos 1666 Rocket - Orbit

View from above orbital plane
View from above orbital plane
View from above satellite
View from above satellite

Ground track
Ground track

The orbit data is extracted from the following two-line orbital elements,

1 15890U 85058B   21129.25115611  .00000078  00000-0  65256-5 0  9990
2 15890  82.5289   9.7701 0020053 208.2188 291.7974 14.83473499914568
Epoch (UTC): 09 May 2021 06:01:39
Eccentricity: 0.0020053
inclination: 82.5289°
perigee height: 604 km
apogee height: 632 km
right ascension of ascending node: 9.7701°
argument of perigee: 208.2188°
revolutions per day: 14.83473499
mean anomaly at epoch: 291.7974°
orbit number at epoch: 91456

The dashed part of the orbit path shows where the satellite is in the earth's shadow,  

DLR